Дата Пункты Температура Давл., мм. Влажн., % Ветер Погодные явления
Воздуха Воды Направл. Скорость
12.01.19 11:00 Одесса -3.0 2.0 755 90 З 3 11 ГОДИН
12.01.19 08:00 Одесса -5.0 2.0 756 88 З 2 08 ГОДИН
12.01.19 05:00 Одесса -7.0 2.0 757 91 З 2 05 ГОДИН
12.01.19 02:00 Одесса -6.0 2.0 757 90 З 2 02 ГОДИНИ
11.01.19 11:00 Одесса -5.0 2.0 757 92 З 2 23 ГОДИНИ
11.01.19 08:00 Одесса -4.0 2.0 756 85 Пн-З 5 20 ГОДИН
11.01.19 05:00 Одесса -2.0 3.0 754 91 Пн-З 4 17 ГОДИН
11.01.19 11:00 Одесса 1.0 3.0 751 96 Пн-С 4 11 ГОДИН
11.01.19 08:00 Одесса 1.0 3.0 752 96 Пн-С 6 08 ГОДИН
11.01.19 05:00 Одесса 1.0 3.0 753 98 Пн-С 4 05 ГОДИН
11.01.19 02:00 Одесса 1.0 3.0 754 97 Пн 4 02 ГОДИНИ
10.01.19 11:00 Одесса 1.0 3.0 754 96 Пн-С 5 23 ГОДИНИ
10.01.19 08:00 Одесса 2.0 3.0 754 96 Пн-С 4 20 ГОДИН
10.01.19 05:00 Одесса 2.0 3.0 754 94 С 6 17 ГОДИН
10.01.19 02:00 Одесса 2.0 3.0 754 96 С 10 14 ГОДИН
10.01.19 11:00 Одесса 3.0 2.0 755 94 Пд-С 6 11 ГОДИН
10.01.19 08:00 Одесса 4.0 2.0 755 92 Пд 6 08 ГОДИН
10.01.19 05:00 Одесса 1.0 2.0 755 93 Пн 2 05 ГОДИН
09.01.19 11:00 Одесса -4.0 3.0 756 88 Пн 0 23 ГОДИНИ
09.01.19 08:00 Одесса -2.0 3.0 755 80 З 1 20 ГОДИН
Количество строк
1 2 3 4 5 6 7 8 9 10
Page 3 of 448